User: anonymous   Login
Location: Unspecified
(37.6100°N, 2.7800°W)
Time: 13:29:14
(UTC+00:00)
Language:

Envisat - Orbit

View from above orbital plane
View from above orbital plane
View from above satellite
View from above satellite

Ground track
Ground track

The orbit data is extracted from the following two-line orbital elements,

1 27386U 02009A   19296.09721144  .00000011  00000-0  17036-4 0  9995
2 27386  98.1449 310.6281 0001196  94.4630 300.2578 14.37960439924362
Epoch (UTC): 23 October 2019 02:19:59
Eccentricity: 0.0001196
inclination: 98.1449°
perigee height: 764 km
apogee height: 766 km
right ascension of ascending node: 310.6281°
argument of perigee: 94.4630°
revolutions per day: 14.37960439
mean anomaly at epoch: 300.2578°
orbit number at epoch: 92436

The dashed part of the orbit path shows where the satellite is in the earth's shadow,  

DLR